Regional Weather Roundup
Issued by NWS San Angelo, TX

Home | Current Version | Previous Version | Graphics & Text | Print | Product List | Glossary Off
Versions: 1 2 3 4 5 6 7 8 9 10 11 12 13 14 15 16 17 18 19 20 21 22 23 24 25 26 27 28 29 30 31 32 33 34 35 36 37 38 39 40 41 42 43 44 45 46 47 48 49 50

000
ASUS44 KSJT 221910
RWRSJT
WEST CENTRAL TEXAS REGIONAL WEATHER ROUNDUP
NATIONAL WEATHER SERVICE SAN ANGELO TX
200 PM CDT SUN OCT 22 2017

NOTE: "FAIR" INDICATES FEW OR NO CLOUDS BELOW 12,000 FEET WITH NO
SIGNIFICANT WEATHER AND/OR OBSTRUCTIONS TO VISIBILITY.

TXZ049-054-064>066-071>073-076>078-098-099-113-114-127-128-139-140-
154-155-168>170-222000
...LOCATIONS ACROSS WEST CENTRAL TEXAS...

CITY           SKY/WX    TMP DP  RH WIND       PRES   REMARKS
SAN ANGELO     SUNNY     73  32  22 N12G17    30.24F
ABILENE        SUNNY     69  37  30 N12       30.25F
DYESS AFB      SUNNY     69  39  34 NE9       30.24F
JUNCTION       SUNNY     77  38  24 N10       30.20F
SWEETWATER     SUNNY     68  31  25 E6        30.29F
BROWNWOOD      NOT AVBL
COLEMAN        CLEAR     73  34  24 N12       30.23F
SONORA         SUNNY     73  34  23 NE10G16   30.27F
OZONA          FAIR      72  32  23 N7        30.27F
BRADY          NOT AVBL
$$

TEXAS PANHANDLE/OKLAHOMA PANHANDLE

CITY           SKY/WX    TMP DP  RH WIND       PRES   REMARKS
AMARILLO       MOSUNNY   64  25  22 SW12G17   30.26F
BORGER         SUNNY     64  19  17 W10       30.24F
CANADIAN       SUNNY     70  18  14 W3G9      30.21F
DALHART        CLOUDY    68  25  19 S13       30.25F
DUMAS          PTCLDY    62  21  20 W15G22    30.25F
GUYMON         NOT AVBL
HEREFORD       CLEAR     66  30  26 W12       30.28F
PAMPA          CLEAR     67  23  19 W12       30.25F
PERRYTON       SUNNY     69  19  14 W13G20    30.21F
$$

SOUTHERN PANHANDLE/SOUTH PLAINS/ROLLING PLAINS

CITY           SKY/WX    TMP DP  RH WIND       PRES   REMARKS
LUBBOCK        PTSUNNY   66  27  23 S5        30.28F
SNYDER         SUNNY     67  29  24 S3        30.28F
CHILDRESS      SUNNY     69  31  24 VRB3      30.24F
SEMINOLE       CLEAR     67  27  22 S3        30.31F
$$

PERMIAN BASIN

CITY           SKY/WX    TMP DP  RH WIND       PRES   REMARKS
MIDLAND        SUNNY     70  29  21 MISG      30.29F
ODESSA         NOT AVBL
WINK           SUNNY     69  32  25 VRB5      30.28F
$$

FAR WEST/SOUTHWEST MOUNTAINS/TRANS PECOS

CITY           SKY/WX    TMP DP  RH WIND       PRES   REMARKS
ALPINE         CLEAR     71  26  19 NE7       30.39F
DRYDEN           N/A     76  40  27 N8        30.24F
EL PASO        MOSUNNY   73  10   9 N8        30.31F
FORT STOCKTON  SUNNY     67  39  35 N5        30.30F
GUADALUPE PASS SUNNY     69  27  20 SW12      30.37
MARFA          SUNNY     74  26  16 NW6       30.34F
PECOS          CLEAR     67  38  34 SW6       30.30F
$$

DALLAS/FORT WORTH METROPLEX

CITY           SKY/WX    TMP DP  RH WIND       PRES   REMARKS
DFW AIRPORT    MOSUNNY   74  40  29 N22       30.14F
FTW MEACHAM    SUNNY     74  40  29 NW17G28   30.16F
DAL-EXECUTIVE  SUNNY     71  50  47 N13G24    30.14F
GRAND PRAIRIE  SUNNY     72  43  35 N10G22    30.17
ADDISON        SUNNY     70  48  46 NW14G20   30.16F
MESQUITE       PTCLDY    70  52  52 NW12G21   30.15F
LANCASTER      CLEAR     68  53  60 NW13G23   30.17S
$$

NORTH CENTRAL TEXAS

CITY           SKY/WX    TMP DP  RH WIND       PRES   REMARKS
SHRMAN/DENISON CLEAR     70  43  37 N18       30.17F
GAINESVILLE    SUNNY     70  36  28 N17G23    30.19F
BRIDGEPORT     CLEAR     70  43  37 N13G20    30.20F
DENTON         SUNNY     72  42  34 N15G29    30.16F
WAXAHACHIE     CLEAR     71  52  51 NW15      30.17S
GRANBURY       CLEAR     73  42  32 NW10      30.19F
$$

WESTERN NORTH TEXAS

CITY           SKY/WX    TMP DP  RH WIND       PRES   REMARKS
WICHITA FALLS  SUNNY     71  39  31 N10       30.20F
VERNON         CLEAR     70  31  23 CALM      30.23F
BRECKENRIDGE   CLEAR     71  39  30 N10G16    30.22F HAZE
COMANCHE       SUNNY     70  44  39 N12       30.21F
$$

CENTRAL AND SOUTH CENTRAL TEXAS

CITY           SKY/WX    TMP DP  RH WIND       PRES   REMARKS
AUSTIN/BERGSTM MOSUNNY   75  59  57 N13       30.13F
WACO           MOSUNNY   75  55  49 NW10G23   30.14F
HILLSBORO      NOT AVBL
TEMPLE         MOSUNNY   72  58  61 N12G20    30.15F
KILLEEN-GRAY   SUNNY     72  55  56 W13       30.15F
FORT HOOD      SUNNY     70  56  61 N10       30.12F
GEORGETOWN     SUNNY     72  58  61 N14G20    30.17F
LAGO VISTA     FAIR      73  57  57 N8        30.17F
SAN MARCOS     SUNNY     78  59  51 N12       30.14F
NEW BRAUNFELS  SUNNY     78  59  51 NE12      30.12F
RANDOLPH AFB   SUNNY     77  54  44 NE10      30.14F
SAN ANTONIO    SUNNY     79  52  38 N13       30.14F
STINSON        SUNNY     81  57  43 N10       30.11F
PLEASANTON     NOT AVBL
LA GRANGE      MOSUNNY   74  62  65 N6        30.09F
GIDDINGS       PTCLDY    71  58  63 N10       30.13F
$$

EAST TEXAS

CITY           SKY/WX    TMP DP  RH WIND       PRES   REMARKS
PARIS          PTSUNNY   66  55  67 N13       30.13F
CLARKSVILLE    NOT AVBL
TYLER          MOSUNNY   73  53  49 NW13      30.09F
LONGVIEW       PTSUNNY   69  59  70 NW15      30.08F
PALESTINE      MOCLDY    71  60  66 NW9       30.13F
NACOGDOCHES    CLOUDY    66  60  81 NW7       30.10F
$$

TEXAS HILL COUNTRY AND EDWARDS PLATEAU

CITY           SKY/WX    TMP DP  RH WIND       PRES   REMARKS
LLANO          CLEAR     73  52  46 NW9       30.21F
HORSESHOE BAY  FAIR      72  58  61 W5        30.18F
KERRVILLE      SUNNY     76  46  34 N10       30.18F
FREDERICKSBRG  SUNNY     75  42  31 NE9       30.19F
ROCKSPRINGS    NOT AVBL
HONDO          SUNNY     85  49  28 NE15G24   30.13F
UVALDE         CLEAR     82  49  31 N9        30.15F
DEL RIO        SUNNY     79  49  34 N9        30.18F
$$

SOUTHEAST TEXAS

CITY           SKY/WX    TMP DP  RH WIND       PRES   REMARKS
COLLEGE STN    MOSUNNY   72  61  68 NW10      30.11F
CALDWELL       PTCLDY    72  60  67 NW12      30.12F
CROCKETT         N/A     72  59  64 NW13      30.13F
BRENHAM        PTSUNNY   72  62  69 NW10      30.11F
HUNTSVILLE     PTSUNNY   69  58  67 NW13G21   30.10F
CONROE         PTSUNNY   68  62  81 NW8       30.10S
HOUSTON BUSH   PTSUNNY   70  62  76 NW8       30.09F
HOUSTON HOBBY  CLOUDY    71  62  73 NW10      30.07S
PERLAND        PTSUNNY   70  63  78 NW8       30.09R
WHARTON        CLOUDY    70  61  73 N9        30.10S
$$

THE UPPER TEXAS COAST

CITY           SKY/WX    TMP DP  RH WIND       PRES   REMARKS
ORANGE         LGT RAIN  64  62  95 MISG      30.00F
PORT ARTHUR    LGT RAIN  63  60  90 E3        30.00F
GALVESTON      CLOUDY    74  65  73 E12       30.04F
ANGLETON       MOSUNNY   75  62  64 N7        30.06S
BAY CITY       CLOUDY    72  63  74 NE3       30.07F
$$

TEXAS COASTAL BEND, RIO GRANDE PLAINS DEEP SOUTH TEXAS

CITY           SKY/WX    TMP DP  RH WIND       PRES   REMARKS
VICTORIA       MOSUNNY   75  62  64 N12       30.09F
BEEVILLE       FAIR      80  56  42 NE14      30.08F
ROCKPORT       PTSUNNY   73  62  68 NE15      30.07F
PORT ARANSAS   NOT AVBL
PORT LAVACA    NOT AVBL
CORPUS CHRISTI LGT RAIN  76  67  73 NE23G35   30.05R
KINGSVILLE NAS PTSUNNY   89  75  63 N15G31    30.02F
COTULLA        SUNNY     86  52  30 NE15G22   30.10F
LAREDO         PTSUNNY   86  72  62 N15       30.08F
BROWNSVILLE    MOSUNNY   91  75  59 MISG      30.00F
PORT ISABEL    MOSUNNY   89  78  70 NE13      30.00F
HEBBRONVILLE   MOCLDY    83  70  64 N14G20    30.08F
MCALLEN        SUNNY     94  72  48 VRB6      30.00F
WESLACO        MOSUNNY   90  73  55 N7        30.00F
FALFURRIAS     MOCLDY    88  72  59 N15       30.02F
EDINBURG       PTCLDY    94  69  44 NW9       30.01F
$$



USA.gov is the U.S. government's official web portal to all federal, state and local government web resources and services.